[[{"header":{"parameterUnit":"m.s-1","parameterCategory":1,"la1":30.2991,"la2":30.254,"lo1":-89.0895,"lo2":-89.0444,"dy":0.0017,"dx":0.0017,"nx":28,"ny":28,"refTime":"2024-03-27T03:00:00:Z","depth":0,"parameterNumber":2,"parameterNumberName":"U-component_of_WINDS"},"data":[0,0,0,0,0,0,0,0,0,0,0,0,0,0,0,0,0,0,0,0,0,0,0,0,0,0,0,0,0,0,0,0,0,0,0,0,0,0,0,0,0,0,0,0,0,0,0,0,0,0,0,0,0,0,0,0,0,0,-0.4832,-0.4832,0,-0.4822,-0.4822,-0.4822,-0.4842,-0.4842,-0.4843,-0.4844,-0.4833,-0.4832,-0.4831,0,0,0,0,0,0,0,0,0,0,0,0,0,-0.4864,-0.4863,-0.4832,-0.4832,-0.4832,-0.4822,-0.4822,-0.4822,-0.4842,-0.4842,-0.4843,-0.4844,-0.4833,-0.4832,-0.4831,0,0,0,0,0,0,0,0,0,0,0,0,0,-0.4852,-0.4863,-0.4832,-0.484,-0.4841,-0.4822,-0.4822,-0.4822,-0.4841,-0.4842,-0.4843,-0.4844,-0.4833,-0.4832,-0.4831,-0.4803,0,0,-0.4827,-0.4826,0,0,0,0,0,0,0,0,-0.4852,-0.485,-0.4839,-0.484,-0.484,-0.4834,-0.483,-0.4816,-0.4841,-0.4841,-0.4844,-0.4845,-0.4832,-0.4831,-0.4827,-0.4803,-0.4803,-0.4827,-0.4826,-0.4825,-0.4825,0,0,0,0,0,0,0,-0.4853,-0.4851,-0.4828,-0.4839,-0.484,-0.4843,-0.4843,-0.4827,-0.4831,-0.4841,-0.4843,-0.4841,-0.4833,-0.4829,-0.4827,-0.4802,-0.4827,-0.4825,-0.4825,-0.4824,-0.4753,-0.4752,0,0,0,0,0,0,-0.4853,-0.4851,-0.4828,-0.4828,-0.4849,-0.4842,-0.4841,-0.4835,-0.4832,-0.4832,-0.4841,-0.4842,-0.483,-0.4829,-0.4827,-0.4793,-0.4825,-0.4824,-0.4823,-0.4754,-0.4752,-0.4751,0,0,0,0,0,0,-0.4854,-0.4851,-0.4829,-0.484,-0.4837,-0.4841,-0.4833,-0.4834,-0.483,-0.4831,-0.4832,-0.4835,-0.4831,-0.4829,-0.4809,-0.4793,-0.4823,-0.4822,-0.4755,-0.4753,-0.4752,-0.4726,0,0,0,0,0,0,-0.4855,-0.4851,-0.4841,-0.484,-0.4837,-0.4811,-0.4833,-0.4834,-0.4828,-0.483,-0.4827,-0.4827,-0.4832,-0.4811,-0.4807,-0.4792,-0.4821,-0.4756,-0.4754,-0.4752,-0.4729,-0.4724,-0.472,0,0,0,0,0,-0.4856,-0.4835,-0.4841,-0.4838,-0.4825,-0.4811,-0.4809,-0.4815,-0.4827,-0.4816,-0.4817,-0.4827,-0.4795,-0.4808,-0.4805,-0.4789,-0.4757,-0.4755,-0.4753,-0.473,-0.4725,-0.472,0,0,0,0,0,0,-0.4835,-0.4835,-0.4842,-0.482,-0.4815,-0.4814,-0.4801,-0.4809,-0.4801,-0.4803,-0.4811,-0.481,-0.4788,-0.4786,-0.4801,-0.4761,-0.4778,-0.4775,-0.4763,-0.4757,-0.4753,-0.4754,-0.482,0,0,0,0,0,-0.4827,-0.4816,-0.4817,-0.4797,-0.4795,-0.4798,-0.4792,-0.4797,-0.4793,-0.4791,-0.479,-0.4784,-0.4773,-0.4765,-0.4755,-0.4729,-0.4727,-0.4715,-0.4711,-0.4708,-0.4705,-0.4688,-0.4683,-0.4743,-0.4743,-0.4743,0,0,-0.4812,-0.4811,-0.4804,-0.4793,-0.479,-0.4777,-0.4797,-0.4783,-0.4773,-0.4788,-0.4769,-0.4768,-0.4762,-0.4738,-0.4728,-0.4736,-0.4687,-0.4705,-0.4702,-0.47,-0.4685,-0.4679,-0.4674,-0.4741,-0.4742,-0.4742,0,0,-0.4778,-0.4777,-0.476,-0.4756,-0.4751,-0.4753,-0.4749,-0.4747,-0.4746,-0.4727,-0.4738,-0.4726,-0.4707,-0.4702,-0.4696,-0.4658,-0.4667,-0.4655,-0.4632,-0.4617,-0.4612,-0.4608,-0.4592,-0.4587,-0.4652,-0.4652,-0.4652,0,-0.476,-0.4742,-0.475,-0.4735,-0.4729,-0.4742,-0.4724,-0.472,-0.4712,-0.4707,-0.4717,-0.4692,-0.4689,-0.4663,-0.4653,-0.4649,-0.4643,-0.4655,-0.4612,-0.4608,-0.4604,-0.4589,-0.4584,-0.465,-0.465,-0.4651,-0.4651,0,-0.4719,-0.4706,-0.4693,-0.4684,-0.4677,-0.4661,-0.4665,-0.4656,-0.4661,-0.4662,-0.4641,-0.4638,-0.4626,-0.4621,-0.4626,-0.4595,-0.46,-0.4611,-0.4628,-0.4597,-0.4583,-0.4578,-0.4648,-0.4649,-0.4649,-0.4649,0,0,-0.4672,-0.4667,-0.4662,-0.4657,-0.4652,-0.4642,-0.4625,-0.4614,-0.4606,-0.4599,-0.4584,-0.4567,-0.4576,-0.457,-0.4575,-0.4561,-0.4529,-0.4573,-0.4573,-0.4564,-0.4492,-0.4483,-0.4476,-0.4534,-0.4533,-0.4533,-0.4492,0,-0.4637,-0.4609,-0.4614,-0.4586,-0.4573,-0.4585,-0.457,-0.4565,-0.4564,-0.4553,-0.4552,-0.4539,-0.4554,-0.455,-0.4537,-0.4535,-0.4514,-0.4539,-0.4519,-0.4518,-0.4519,-0.447,-0.4461,-0.4422,-0.4487,-0.4486,-0.4485,0,-0.4593,-0.4584,-0.4555,-0.455,-0.4545,-0.4532,-0.4521,-0.451,-0.4503,-0.4504,-0.4496,-0.4503,-0.4484,-0.4502,-0.4476,-0.4493,-0.4485,-0.4483,-0.4481,-0.4479,-0.4499,-0.4464,-0.441,-0.4404,-0.4477,-0.4478,-0.4478,0,-0.456,-0.4541,-0.452,-0.4516,-0.4511,-0.45,-0.4497,-0.4492,-0.4484,-0.4474,-0.4469,-0.4457,-0.445,-0.444,-0.4443,-0.4456,-0.4415,-0.4434,-0.4414,-0.4413,-0.4404,-0.4404,-0.4346,-0.4401,-0.4401,-0.4401,-0.4401,0,-0.4519,-0.45,-0.4505,-0.4492,-0.4471,-0.4476,-0.4455,-0.4453,-0.4447,-0.4433,-0.4443,-0.4429,-0.4434,-0.442,-0.4422,-0.4399,-0.4396,-0.4395,-0.4396,-0.4394,-0.4394,-0.4388,-0.439,-0.44,-0.44,-0.44,-0.4401,0,-0.4478,-0.4481,-0.4459,-0.4455,-0.4453,-0.4437,-0.4433,-0.4421,-0.4421,-0.4403,-0.4399,-0.4399,-0.4383,-0.4385,-0.4367,-0.4368,-0.4339,-0.4343,-0.4341,-0.4342,-0.4321,-0.4322,-0.4256,-0.4247,-0.4309,-0.4308,-0.4308,0,-0.4452,-0.4438,-0.4432,-0.4423,-0.4419,-0.4406,-0.4398,-0.4402,-0.4393,-0.4383,-0.4371,-0.4356,-0.4345,-0.4318,-0.4316,-0.4302,-0.4305,-0.4283,-0.4303,-0.4301,-0.4303,-0.4303,-0.4301,-0.4279,-0.4278,-0.4277,-0.4277,0,-0.4404,-0.4406,-0.4394,-0.4382,-0.4372,-0.4363,-0.4355,-0.4347,-0.4351,-0.434,-0.4324,-0.4314,-0.4296,-0.428,-0.4266,-0.4262,-0.4269,-0.4271,-0.4265,-0.4262,-0.4261,-0.4259,-0.4329,-0.4272,-0.4273,-0.4273,-0.4273,-0.4273,-0.4369,-0.4356,-0.4349,-0.4335,-0.4329,-0.4321,-0.4308,-0.4306,-0.4293,-0.4279,-0.4282,-0.4263,-0.4255,-0.4237,-0.4232,-0.4216,-0.4224,-0.4216,-0.4214,-0.4211,-0.4208,-0.4264,-0.4214,-0.4214,-0.4214,-0.4214,-0.4214,0,-0.432,-0.4316,-0.4303,-0.4291,-0.428,-0.4288,-0.4279,-0.4268,-0.4252,-0.4244,-0.4232,-0.4212,-0.4196,-0.4192,-0.4177,-0.4165,-0.4168,-0.4161,-0.4161,-0.4159,-0.4203,-0.4209,-0.4159,-0.4159,-0.4159,-0.4159,-0.4159,-0.4159,-0.4293,-0.4271,-0.4272,-0.4246,-0.4242,-0.4224,-0.4218,-0.4209,-0.4203,-0.418,-0.4167,-0.4165,-0.4158,-0.4142,-0.4127,-0.4126,-0.4119,-0.411,-0.4111,-0.4151,-0.4157,-0.4162,-0.4167,-0.4109,-0.4109,-0.4068,-0.4068,-0.4067]},{"header":{"parameterUnit":"m.s-1","parameterCategory":1,"la1":30.2991,"la2":30.254,"lo1":-89.0895,"lo2":-89.0444,"dy":0.0017,"dx":0.0017,"nx":28,"ny":28,"refTime":"2024-03-27T03:00:00:Z","depth":0,"parameterNumber":3,"parameterNumberName":"V-component_of_WINDS"},"data":[0,0,0,0,0,0,0,0,0,0,0,0,0,0,0,0,0,0,0,0,0,0,0,0,0,0,0,0,0,0,0,0,0,0,0,0,0,0,0,0,0,0,0,0,0,0,0,0,0,0,0,0,0,0,0,0,0,0,-4.9968,-4.9969,0,-5.0027,-5.0028,-5.0029,-5.0018,-5.0017,-5.0016,-5.0015,-5.0071,-5.0073,-5.0075,0,0,0,0,0,0,0,0,0,0,0,0,0,-4.9843,-4.9845,-4.9968,-4.9969,-4.997,-5.0027,-5.0028,-5.0029,-5.0018,-5.0017,-5.0015,-5.0014,-5.007,-5.0073,-5.0076,0,0,0,0,0,0,0,0,0,0,0,0,0,-4.9899,-4.9846,-4.9968,-4.9971,-4.9972,-5.0027,-5.0028,-5.0029,-5.0018,-5.0017,-5.0015,-5.0014,-5.0069,-5.0072,-5.0076,-5.013,0,0,-5.0087,-5.0089,0,0,0,0,0,0,0,0,-4.9896,-4.9904,-4.997,-4.9971,-4.9972,-5.0014,-5.0004,-5.0063,-5.0019,-5.0001,-5.0015,-5.0013,-5.0053,-5.0058,-5.0072,-5.0133,-5.0135,-5.0088,-5.009,-5.0091,-5.0093,0,0,0,0,0,0,0,-4.9892,-4.9901,-4.9991,-4.9971,-4.9972,-4.9969,-4.9975,-5.0015,-5.0034,-5.0002,-5.0001,-5.0009,-5.0053,-5.0068,-5.0073,-5.0136,-5.0088,-5.0091,-5.0093,-5.0095,-5.0246,-5.0248,0,0,0,0,0,0,-4.9888,-4.9898,-4.9989,-4.9993,-4.993,-4.9972,-4.9979,-5.0002,-5.0034,-5.0038,-5.001,-5.0008,-5.0063,-5.0069,-5.0075,-5.0142,-5.0091,-5.0095,-5.0097,-5.0244,-5.0246,-5.0248,0,0,0,0,0,0,-4.9885,-4.9896,-4.9987,-4.9945,-4.9957,-4.9976,-5.0002,-5.0004,-5.0019,-5.004,-5.0043,-5.0023,-5.0062,-5.007,-5.0117,-5.0144,-5.0097,-5.01,-5.0242,-5.0245,-5.0247,-5.0276,0,0,0,0,0,0,-4.9881,-4.9895,-4.9916,-4.9946,-4.9959,-5.0029,-5.0003,-5.0006,-5.0026,-5.0024,-5.0053,-5.0056,-5.0061,-5.0112,-5.0121,-5.0148,-5.0103,-5.024,-5.0243,-5.0247,-5.0273,-5.0279,-5.0285,0,0,0,0,0,-4.9877,-4.992,-4.9917,-4.9928,-4.9986,-5.0031,-5.0038,-5.0045,-5.0029,-5.005,-5.0064,-5.0055,-5.0139,-5.0117,-5.0127,-5.0156,-5.0238,-5.0242,-5.0246,-5.027,-5.0278,-5.0285,0,0,0,0,0,0,-4.989,-4.9924,-4.9921,-4.9976,-5.0001,-5.0029,-5.0056,-5.0053,-5.0082,-5.0078,-5.0084,-5.009,-5.0139,-5.0152,-5.0126,-5.0211,-5.0186,-5.0193,-5.0201,-5.0209,-5.0215,-5.0211,-5.0106,0,0,0,0,0,-4.99,-4.9935,-4.9962,-5.0007,-5.002,-5.0036,-5.0056,-5.0059,-5.0085,-5.0095,-5.0112,-5.0136,-5.0168,-5.0189,-5.0219,-5.0274,-5.0281,-5.0299,-5.0305,-5.031,-5.0316,-5.0348,-5.0357,-5.0262,-5.0262,-5.0262,0,0,-4.992,-4.9942,-4.9964,-5.0011,-5.003,-5.0066,-5.0045,-5.0082,-5.0109,-5.01,-5.0147,-5.016,-5.0187,-5.024,-5.0263,-5.0251,-5.0343,-5.0315,-5.0319,-5.0322,-5.0353,-5.0362,-5.037,-5.0265,-5.0264,-5.0264,0,0,-4.9974,-4.9994,-5.0036,-5.0057,-5.0088,-5.0099,-5.0109,-5.0139,-5.0148,-5.0196,-5.019,-5.0221,-5.0275,-5.0296,-5.0313,-5.0378,-5.0372,-5.0388,-5.042,-5.0451,-5.0459,-5.0465,-5.049,-5.0499,-5.0393,-5.0393,-5.0393,0,-4.9994,-5.0049,-5.0057,-5.0097,-5.0118,-5.0114,-5.0156,-5.0175,-5.0214,-5.0228,-5.0215,-5.0286,-5.0303,-5.0362,-5.0378,-5.0391,-5.0403,-5.0385,-5.0457,-5.0464,-5.047,-5.0494,-5.0503,-5.0395,-5.0395,-5.0395,-5.0395,0,-5.0073,-5.0111,-5.014,-5.0181,-5.0205,-5.0246,-5.026,-5.0283,-5.0285,-5.0297,-5.0346,-5.0368,-5.0404,-5.0417,-5.0418,-5.0476,-5.0468,-5.0456,-5.0432,-5.0481,-5.0504,-5.0513,-5.0398,-5.0397,-5.0397,-5.0396,0,0,-5.0136,-5.0183,-5.0194,-5.0214,-5.0249,-5.0278,-5.0319,-5.0356,-5.0377,-5.0404,-5.0438,-5.0486,-5.0476,-5.0496,-5.0499,-5.0526,-5.0579,-5.0511,-5.0512,-5.0524,-5.0646,-5.0656,-5.0667,-5.0575,-5.0577,-5.0578,-5.0645,0,-5.0195,-5.0269,-5.0279,-5.0344,-5.038,-5.0377,-5.0413,-5.0438,-5.0451,-5.0482,-5.0495,-5.053,-5.0513,-5.0525,-5.0552,-5.0567,-5.0604,-5.0562,-5.0607,-5.0608,-5.0602,-5.0678,-5.0688,-5.075,-5.0653,-5.0655,-5.0656,0,-5.0274,-5.0307,-5.0376,-5.0409,-5.0425,-5.0457,-5.0493,-5.0523,-5.0552,-5.0559,-5.0583,-5.0583,-5.0625,-5.0599,-5.0657,-5.0628,-5.0647,-5.0657,-5.066,-5.0665,-5.0636,-5.0687,-5.077,-5.078,-5.0669,-5.0668,-5.0667,0,-5.0316,-5.0377,-5.0427,-5.0443,-5.0483,-5.0506,-5.0523,-5.055,-5.0573,-5.0604,-5.0619,-5.0653,-5.0673,-5.0699,-5.0709,-5.0689,-5.0767,-5.0741,-5.0774,-5.0774,-5.0791,-5.079,-5.088,-5.0801,-5.0801,-5.0801,-5.0801,0,-5.0381,-5.0424,-5.0447,-5.0478,-5.0526,-5.0537,-5.0584,-5.0599,-5.0625,-5.0658,-5.0657,-5.0688,-5.0698,-5.0731,-5.0739,-5.0787,-5.0795,-5.0802,-5.0803,-5.0803,-5.0802,-5.0816,-5.0812,-5.0803,-5.0803,-5.0802,-5.0802,0,-5.0436,-5.0453,-5.0508,-5.0542,-5.0551,-5.0586,-5.0614,-5.0644,-5.0657,-5.07,-5.071,-5.073,-5.0769,-5.0782,-5.0827,-5.0833,-5.0889,-5.0886,-5.088,-5.0881,-5.0914,-5.0911,-5.1017,-5.1032,-5.0942,-5.0943,-5.0943,0,-5.0477,-5.0511,-5.055,-5.0574,-5.0592,-5.063,-5.0654,-5.0666,-5.0691,-5.0728,-5.0753,-5.0792,-5.0825,-5.0887,-5.0905,-5.0941,-5.0939,-5.0974,-5.0944,-5.0944,-5.0942,-5.094,-5.0945,-5.0979,-5.098,-5.0981,-5.0982,0,-5.055,-5.0557,-5.0593,-5.0633,-5.0663,-5.0694,-5.0723,-5.0742,-5.0758,-5.0786,-5.0828,-5.0853,-5.0902,-5.0941,-5.0978,-5.0995,-5.0991,-5.0991,-5.1001,-5.1001,-5.0997,-5.1002,-5.0897,-5.0989,-5.0988,-5.0987,-5.0987,-5.0987,-5.06,-5.0631,-5.0664,-5.0705,-5.0729,-5.0758,-5.0789,-5.0807,-5.0842,-5.0885,-5.0889,-5.0934,-5.0963,-5.1013,-5.1032,-5.1066,-5.1056,-5.107,-5.1074,-5.1077,-5.1081,-5.0991,-5.1073,-5.1072,-5.1072,-5.1072,-5.1072,0,-5.0674,-5.0696,-5.0733,-5.0777,-5.0809,-5.0806,-5.0839,-5.0866,-5.0906,-5.0935,-5.0968,-5.1016,-5.1055,-5.1077,-5.1115,-5.1139,-5.1139,-5.1149,-5.1148,-5.1152,-5.1087,-5.1076,-5.1149,-5.1149,-5.1149,-5.1149,-5.1149,-5.1149,-5.0716,-5.0769,-5.0781,-5.0846,-5.0867,-5.0913,-5.0933,-5.096,-5.0983,-5.1038,-5.1071,-5.1086,-5.1112,-5.1153,-5.1189,-5.1194,-5.1209,-5.1221,-5.1225,-5.1164,-5.1156,-5.1149,-5.1138,-5.1223,-5.1223,-5.1287,-5.1288,-5.1288]}]]